Big Rapids, MI

4:18 PM EST on December 08, 2019 (GMT -0500)
Roben-Hood

Weather History for KRQB - August, 2019

Change the Weather History Date:

Monday, August 19, 2019

  Actual Average Record
Temperature  
Mean Temperature 71 °F -  
Max Temperature 81 °F 76 °F 95 °F (1983)
Min Temperature 61 °F 53 °F 42 °F (1977)
Cooling Degree Days 6    
Growing Degree Days 21 (Base 50)    
Moisture  
Dew Point 59 °F    
Average Humidity 70    
Maximum Humidity 96    
Minimum Humidity 34    
Precipitation  
Precipitation 0.00 in - - ()
Sea Level Pressure  
Sea Level Pressure 30.00 in    
Wind  
Wind Speed 4 mph (West)    
Max Wind Speed 12 mph    
Max Gust Speed -    
Visibility 10 miles    
Events      
Averages and records for this station are not official NWS values.
T = Trace of Precipitation, MM = Missing Value Source: NWS Daily Summary

Daily Weather History Graph

Daily Weather History Graph

Search for Another Location

Airport or City:

Astronomy

Aug. 19, 2019 Rise Set
Actual Time 6:50 AM EDT 8:39 PM EDT
Civil Twilight 6:19 AM EDT 9:10 PM EDT
Nautical Twilight 5:42 AM EDT 9:47 PM EDT
Astronomical Twilight 5:01 AM EDT 10:28 PM EDT
Moon 10:53 PM EDT (8/19) 10:37 AM EDT (8/19)
Length of Visible Light 14h 50m
Length of Day
13h 49m
Waning Gibbous, 85% of the Moon is Illuminated
Aug 19
Waning Gibbous
Aug 23
Last Quarter
Aug 30
New
Sep 5
First Quarter
Sep 14
Full

Hourly Weather History & Observations

Time (EDT) Temp. Heat Index Dew Point Humidity Pressure Visibility Wind Dir Wind Speed Gust Speed Precip Events Conditions
12:16 AM 64.8 °F - 62.6 °F 93% 29.89 in 10.0 mi Calm Calm - N/A   Clear
12:35 AM 64.9 °F - 62.6 °F 92% 29.90 in 10.0 mi West 3.5 mph - N/A   Clear
12:36 AM 64.9 °F - 62.6 °F 92% 29.90 in 10.0 mi Calm Calm - N/A   Clear
12:55 AM 65.3 °F - 62.6 °F 91% 29.91 in 10.0 mi West 5.8 mph - N/A   Clear
1:17 AM 65.5 °F - 62.8 °F 91% 29.91 in 10.0 mi West 5.8 mph - N/A   Clear
1:35 AM 65.7 °F - 62.6 °F 90% 29.91 in 10.0 mi West 5.8 mph - N/A   Clear
1:55 AM 66.4 °F - 63.0 °F 89% 29.92 in 10.0 mi West 5.8 mph - N/A   Mostly Cloudy
2:15 AM 66.9 °F - 63.0 °F 87% 29.92 in 10.0 mi West 5.8 mph - N/A   Overcast
2:20 AM 66.7 °F - 63.0 °F 88% 29.92 in 10.0 mi West 6.9 mph - N/A   Mostly Cloudy
2:38 AM 66.7 °F - 63.0 °F 88% 29.92 in 10.0 mi West 6.9 mph - N/A   Mostly Cloudy
2:56 AM 66.9 °F - 63.1 °F 88% 29.92 in 10.0 mi West 9.2 mph - N/A   Scattered Clouds
3:15 AM 66.9 °F - 63.0 °F 87% 29.92 in 10.0 mi West 6.9 mph - N/A   Scattered Clouds
3:35 AM 66.7 °F - 63.3 °F 89% 29.93 in 10.0 mi West 5.8 mph - N/A   Clear
4:17 AM 65.8 °F - 62.6 °F 89% 29.94 in 10.0 mi WNW 5.8 mph - N/A   Scattered Clouds
4:35 AM 66.2 °F - 63.0 °F 89% 29.94 in 10.0 mi West 4.6 mph - N/A   Scattered Clouds
4:36 AM 66.2 °F - 63.1 °F 90% 29.94 in 10.0 mi West 4.6 mph - N/A   Scattered Clouds
4:55 AM 65.5 °F - 63.0 °F 92% 29.95 in 10.0 mi West 4.6 mph - N/A   Scattered Clouds
5:19 AM 65.3 °F - 63.0 °F 92% 29.96 in 10.0 mi WNW 4.6 mph - N/A   Overcast
5:37 AM 64.8 °F - 62.8 °F 93% 29.96 in 10.0 mi NW 5.8 mph - N/A   Mostly Cloudy
5:55 AM 63.5 °F - 61.7 °F 94% 29.96 in 10.0 mi North 3.5 mph - N/A   Scattered Clouds
5:56 AM 63.5 °F - 61.7 °F 94% 29.96 in 10.0 mi North 3.5 mph - N/A   Scattered Clouds
6:15 AM 62.8 °F - 61.7 °F 96% 29.96 in 10.0 mi NNW 3.5 mph - N/A   Scattered Clouds
6:16 AM 62.8 °F - 61.7 °F 96% 29.96 in 10.0 mi NNW 3.5 mph - N/A   Scattered Clouds
6:35 AM 63.0 °F - 61.7 °F 96% 29.97 in 10.0 mi North 4.6 mph - N/A   Clear
6:40 AM 63.0 °F - 61.7 °F 96% 29.97 in 10.0 mi North 4.6 mph - N/A   Clear
6:58 AM 62.4 °F - 60.8 °F 94% 29.98 in 10.0 mi Calm Calm - N/A   Clear
7:15 AM 61.3 °F - 59.5 °F 94% 29.99 in 10.0 mi Calm Calm - N/A   Clear
7:35 AM 62.2 °F - 60.8 °F 95% 30.00 in 10.0 mi NW 3.5 mph - N/A   Clear
7:36 AM 62.2 °F - 60.6 °F 94% 30.00 in 10.0 mi West 3.5 mph - N/A   Clear
7:59 AM 63.5 °F - 61.7 °F 94% 30.01 in 10.0 mi Calm Calm - N/A   Clear
8:17 AM 64.4 °F - 61.5 °F 90% 30.01 in 10.0 mi Calm Calm - N/A   Clear
8:35 AM 65.3 °F - 61.9 °F 89% 30.02 in 10.0 mi Calm Calm - N/A   Clear
8:36 AM 65.3 °F - 61.9 °F 89% 30.02 in 10.0 mi Calm Calm - N/A   Clear
8:55 AM 66.2 °F - 61.0 °F 83% 30.02 in 10.0 mi Calm Calm - N/A   Clear
8:56 AM 66.2 °F - 60.8 °F 83% 30.02 in 10.0 mi SSE 3.5 mph - N/A   Clear
9:15 AM 67.3 °F - 60.4 °F 79% 30.03 in 10.0 mi Calm Calm - N/A   Clear
9:38 AM 68.9 °F - 56.8 °F 65% 30.03 in 10.0 mi South 4.6 mph - N/A   Clear
9:56 AM 69.8 °F - 56.3 °F 62% 30.03 in 10.0 mi SSE 5.8 mph - N/A   Clear
10:15 AM 70.7 °F - 54.9 °F 57% 30.03 in 10.0 mi East 5.8 mph - N/A   Clear
10:35 AM 71.4 °F - 54.5 °F 55% 30.04 in 10.0 mi South 6.9 mph - N/A   Clear
10:59 AM 72.0 °F - 52.0 °F 49% 30.05 in 10.0 mi SE 4.6 mph - N/A   Clear
11:17 AM 72.7 °F - 52.0 °F 48% 30.05 in 10.0 mi South 5.8 mph - N/A   Clear
11:35 AM 73.2 °F - 51.6 °F 47% 30.05 in 10.0 mi Calm Calm - N/A   Clear
11:36 AM 73.2 °F - 51.8 °F 47% 30.05 in 10.0 mi East 3.5 mph - N/A   Clear
11:55 AM 74.3 °F - 54.1 °F 49% 30.05 in 10.0 mi East 3.5 mph - N/A   Clear
11:56 AM 74.3 °F - 54.1 °F 49% 30.05 in 10.0 mi East 4.6 mph - N/A   Clear
12:19 PM 74.8 °F - 56.3 °F 52% 30.05 in 10.0 mi East 4.6 mph - N/A   Clear
12:37 PM 75.2 °F - 55.6 °F 50% 30.05 in 10.0 mi SSW 9.2 mph - N/A   Clear
12:55 PM 76.3 °F - 56.5 °F 50% 30.05 in 10.0 mi Calm Calm - N/A   Clear
1:16 PM 76.6 °F - 55.9 °F 49% 30.05 in 10.0 mi Calm Calm - N/A   Clear
1:35 PM 77.4 °F - 57.2 °F 50% 30.04 in 10.0 mi East 4.6 mph - N/A   Clear
1:57 PM 77.9 °F - 54.3 °F 44% 30.04 in 10.0 mi Calm Calm - N/A   Clear
2:15 PM 78.8 °F - 56.7 °F 46% 30.04 in 10.0 mi SW 6.9 mph - N/A   Clear
2:16 PM 79.0 °F - 56.8 °F 46% 30.04 in 10.0 mi SW 6.9 mph - N/A   Clear
2:35 PM 79.5 °F - 55.4 °F 43% 30.04 in 10.0 mi NW 3.5 mph - N/A   Clear
2:59 PM 80.1 °F 80.6 °F 58.1 °F 47% 30.03 in 10.0 mi West 5.8 mph - N/A   Clear
3:17 PM 80.6 °F 80.5 °F 55.6 °F 42% 30.03 in 10.0 mi WSW 8.1 mph - N/A   Clear
3:35 PM 80.4 °F 80.1 °F 53.4 °F 39% 30.03 in 10.0 mi West 6.9 mph - N/A   Clear
3:36 PM 80.6 °F 80.3 °F 53.4 °F 39% 30.03 in 10.0 mi West 8.1 mph - N/A   Clear
3:55 PM 81.1 °F 80.7 °F 54.3 °F 39% 30.03 in 10.0 mi SW 8.1 mph - N/A   Clear
4:15 PM 81.7 °F 81.0 °F 54.0 °F 38% 30.02 in 10.0 mi WSW 8.1 mph - N/A   Clear
4:20 PM 81.1 °F - 52.7 °F 37% 30.02 in 10.0 mi West 8.1 mph - N/A   Clear
4:37 PM 81.7 °F - 50.5 °F 34% 30.02 in 10.0 mi West 9.2 mph - N/A   Clear
4:55 PM 81.9 °F 81.2 °F 54.3 °F 39% 30.02 in 10.0 mi West 9.2 mph - N/A   Clear
4:56 PM 81.9 °F 81.2 °F 54.3 °F 39% 30.01 in 10.0 mi West 8.1 mph - N/A   Clear
5:15 PM 81.1 °F 80.9 °F 55.6 °F 41% 30.01 in 10.0 mi WSW 6.9 mph - N/A   Clear
5:20 PM 80.8 °F 80.7 °F 55.4 °F 42% 30.01 in 10.0 mi WSW 4.6 mph - N/A   Clear
5:38 PM 80.8 °F 80.9 °F 56.8 °F 44% 30.01 in 10.0 mi WSW 3.5 mph - N/A   Clear
5:56 PM 81.7 °F 81.5 °F 57.4 °F 43% 30.01 in 10.0 mi West 11.5 mph - N/A   Clear
6:15 PM 81.1 °F 81.4 °F 58.3 °F 46% 30.01 in 10.0 mi West 6.9 mph - N/A   Clear
6:16 PM 81.3 °F 81.4 °F 58.1 °F 45% 30.01 in 10.0 mi West 6.9 mph - N/A   Clear
6:35 PM 79.7 °F - 55.4 °F 43% 30.02 in 10.0 mi WSW 10.4 mph - N/A   Clear
6:59 PM 79.2 °F - 56.7 °F 46% 30.02 in 10.0 mi West 8.1 mph - N/A   Clear
7:17 PM 77.5 °F - 57.7 °F 50% 30.02 in 10.0 mi WSW 8.1 mph - N/A   Clear
7:35 PM 76.6 °F - 58.3 °F 53% 30.02 in 10.0 mi West 6.9 mph - N/A   Clear
7:36 PM 76.5 °F - 58.3 °F 53% 30.02 in 10.0 mi West 6.9 mph - N/A   Clear
7:55 PM 74.7 °F - 59.0 °F 58% 30.02 in 10.0 mi West 4.6 mph - N/A   Clear
8:15 PM 74.1 °F - 59.2 °F 59% 30.02 in 10.0 mi West 4.6 mph - N/A   Clear
8:20 PM 73.4 °F - 59.0 °F 61% 30.02 in 10.0 mi West 4.6 mph - N/A   Clear
8:37 PM 72.0 °F - 59.2 °F 64% 30.03 in 10.0 mi Calm Calm - N/A   Clear
8:56 PM 70.5 °F - 59.0 °F 67% 30.03 in 10.0 mi West 10.4 mph - N/A   Clear
9:15 PM 68.2 °F - 59.9 °F 75% 30.03 in 10.0 mi West 11.5 mph - N/A   Clear
9:16 PM 68.2 °F - 59.9 °F 75% 30.03 in 10.0 mi West 11.5 mph - N/A   Clear
9:35 PM 67.1 °F - 60.8 °F 80% 30.04 in 10.0 mi West 9.2 mph - N/A   Clear
9:40 PM 67.1 °F - 60.4 °F 79% 30.04 in 10.0 mi West 9.2 mph - N/A   Clear
9:58 PM 65.8 °F - 60.8 °F 84% 30.04 in 10.0 mi Calm Calm - N/A   Clear
10:16 PM 65.1 °F - 60.8 °F 86% 30.04 in 10.0 mi West 3.5 mph - N/A   Clear
10:35 PM 63.3 °F - 59.5 °F 87% 30.05 in 10.0 mi West 3.5 mph - N/A   Clear
10:36 PM 63.1 °F - 59.7 °F 89% 30.05 in 10.0 mi West 3.5 mph - N/A   Clear
10:55 PM 64.0 °F - 61.0 °F 90% 30.04 in 10.0 mi Calm Calm - N/A   Clear
11:00 PM 63.7 °F - 60.4 °F 89% 30.05 in 10.0 mi Calm Calm - N/A   Clear
11:18 PM 63.0 °F - 60.4 °F 91% 30.05 in 10.0 mi Calm Calm - N/A   Clear
11:36 PM 61.2 °F - 59.2 °F 93% 30.06 in 10.0 mi Calm Calm - N/A   Clear
11:55 PM 61.2 °F - 58.8 °F 92% 30.05 in 10.0 mi Calm Calm - N/A   Clear
11:56 PM 61.0 °F - 58.8 °F 93% 30.05 in 10.0 mi Calm Calm - N/A   Clear